Flag for Poland Weather for the Past 2 Weeks in Lidzbark Warmiński, Poland

Now
46 °F

Cool.


Feels Like: 46 °F
Forecast: 42 / 68 °F
Wind: 1 mph from Southeast

Location: Ketrzyn

Current Time: May 4, 2016 at 4:41:17 AM

Latest Report: May 4, 2016 at 3:00 AM


Visibility: 6 mi

Pressure: 30.05 "Hg

Humidity: 91%

Dew Point: 43 °F

Location of Lidzbark WarmińskiLocation

Historic Weather in Lidzbark Warmiński — Graph

°F

Lidzbark Warmiński Temperature Yesterday

Maximum temperature yesterday: 66 °F (at 6:00 PM)
Minimum temperature yesterday: 42 °F (at 6:00 AM)
Average temperature yesterday: 57 °F

High & Low Weather Summary for the Past Weeks

 TemperatureHumidityPressure
High66 °F (May 3, 6:00 PM)95% (Apr 25, 4:00 AM)30.29 "Hg (Apr 25, 4:00 AM)
Low32 °F (Apr 25, 4:00 AM)32% (Apr 26, 5:00 PM)29.60 "Hg (Apr 27, 1:00 AM)
Average48 °F67%29.97 "Hg
* Reported Apr 19 1:00 PM — May 4 3:00 AM, Lidzbark Warmiński, Weather by CustomWeather, © 2016

Note: Actual official high and low records may vary slightly from our data, if they occured in-between our weather recording intervals... More about our weather records

Advertising

Lidzbark Warmiński Weather History for the Previous 24 Hours

Scroll right to see more
 ConditionsComfort  
Time TempWeatherWind HumidityBarometerVisibility
3:00 AM
Wed, May 4
46 °FCool.1 mph91%30.05 "Hg6 mi
2:00 AM47 °FCool.No wind85%30.04 "Hg11 mi
1:00 AM49 °FCool.1 mph84%30.04 "Hg13 mi
10:00 PM
Tue, May 3
56 °FCool.1 mph65%30.03 "Hg7 mi
9:00 PM58 °FRefreshingly cool.2 mph59%30.01 "Hg31 mi
8:00 PM62 °FRefreshingly cool.2 mph48%29.99 "Hg9 mi
7:00 PM64 °FMild.2 mph43%29.98 "Hg28 mi
6:00 PM66 °FMild.3 mph42%29.98 "Hg25 mi
5:00 PM66 °FMild.2 mph44%29.98 "Hg22 mi
4:00 PM65 °FMild.3 mph49%29.99 "Hg19 mi
3:00 PM58 °FLots of rain. Cloudy.3 mph68%30.01 "Hg5 mi
2:00 PM62 °FLight rain. Cloudy.6 mph57%30.01 "Hg19 mi
1:00 PM65 °FMild.5 mph50%30.02 "Hg22 mi
12:00 PM66 °FMild.3 mph49%30.04 "Hg19 mi
11:00 AM66 °FMild.5 mph55%30.05 "Hg18 mi
10:00 AM63 °FMild.5 mph58%30.06 "Hg18 mi
8:00 AM54 °FCool.2 mph81%30.08 "Hg14 mi
7:00 AM46 °FCool.1 mph91%30.09 "Hg7 mi
6:00 AM42 °FFog.1 mph93%30.10 "Hg4 mi
5:00 AM42 °FQuite cool.1 mph91%30.10 "Hg7 mi
Weather by CustomWeather, © 2016

See weather overviewHow to use our weather pages